Location: Unspecified
(42.2730°N, 83.7130°W)
Time: 14:59:04
(UTC+00:00)

Cosmos 1484 Rocket - Pass Details

Date: 14 December 2025
Orbit: 439 x 472 km, 97.6° (Epoch: 17 January)

Event Time Altitude Azimuth Distance (km) Brightness Sun altitude
Rises 12:03:39 0° 360° (N) 2,462 5.9 -9.5°
Reaches altitude 10° 12:05:55 10° 347° (NNW) 1,579 4.8 -9.1°
Maximum altitude 12:08:44 25° 290° (WNW) 937 3.4 -8.6°
Drops below altitude 10° 12:11:31 10° 233° (SW) 1,556 4.8 -8.2°
Sets 12:13:44 0° 220° (SW) 2,417 5.9 -7.8°
